• In Italy
  • List of Countries
  • For 7 days
  • Water Temperature
  • Satellite Maps
  • Weather Map
  • Weather Widgets
  • user-avatar
    Login

    Hourly Weather Mauritius

    Today, 20 September, Wednesday

    Time Temperature Precipitation Wind Pressure Humidity
    00:00 +19°C° 0.1 mm 9 mps 729 mmHg 80%
    01:00 +20°C° 0.1 mm 8 mps 729 mmHg 80%
    02:00 +20°C° 0 mm 8 mps 729 mmHg 80%
    03:00 +20°C° 0 mm 8 mps 729 mmHg 80%
    04:00 +20°C° 0 mm 7 mps 729 mmHg 79%
    05:00 +20°C° 0 mm 7 mps 729 mmHg 78%
    06:00 +20°C° 0 mm 7 mps 729 mmHg 78%
    07:00 +20°C° 0 mm 7 mps 729 mmHg 78%
    08:00 +21°C° 0 mm 7 mps 729 mmHg 75%
    09:00 +21°C° 0 mm 7 mps 729 mmHg 72%
    10:00 +22°C° 0 mm 7 mps 729 mmHg 69%
    11:00 +22°C° 0 mm 7 mps 729 mmHg 68%
    12:00 +22°C° 0 mm 7 mps 729 mmHg 67%
    13:00 +22°C° 0 mm 7 mps 728 mmHg 66%
    14:00 +22°C° 0 mm 7 mps 728 mmHg 67%
    15:00 +22°C° 0 mm 6 mps 728 mmHg 67%
    16:00 +22°C° 0 mm 6 mps 728 mmHg 68%
    17:00 +21°C° 0 mm 6 mps 728 mmHg 70%
    18:00 +21°C° 0 mm 6 mps 728 mmHg 71%
    19:00 +20°C° 0 mm 6 mps 728 mmHg 72%
    20:00 +20°C° 0 mm 6 mps 728 mmHg 73%
    21:00 +20°C° 0 mm 6 mps 729 mmHg 74%
    22:00 +20°C° 0 mm 6 mps 729 mmHg 74%
    23:00 +20°C° 0 mm 6 mps 729 mmHg 74%

    Tomorrow, 21 September, Thursday

    Time Temperature Precipitation Wind Pressure Humidity
    00:00 +20°C° 0 mm 6 mps 728 mmHg 73%
    01:00 +20°C° 0 mm 6 mps 728 mmHg 73%
    02:00 +20°C° 0 mm 6 mps 728 mmHg 73%
    03:00 +20°C° 0 mm 6 mps 727 mmHg 72%
    04:00 +20°C° 0 mm 6 mps 727 mmHg 72%
    05:00 +20°C° 0 mm 6 mps 727 mmHg 72%
    06:00 +20°C° 0 mm 6 mps 727 mmHg 72%
    07:00 +20°C° 0 mm 6 mps 727 mmHg 71%
    08:00 +21°C° 0 mm 6 mps 728 mmHg 69%
    09:00 +22°C° 0 mm 6 mps 728 mmHg 66%
    10:00 +22°C° 0 mm 6 mps 728 mmHg 63%
    11:00 +23°C° 0 mm 6 mps 728 mmHg 63%
    12:00 +23°C° 0 mm 6 mps 727 mmHg 62%
    13:00 +23°C° 0 mm 5 mps 727 mmHg 61%
    14:00 +23°C° 0 mm 6 mps 727 mmHg 63%
    15:00 +23°C° 0 mm 6 mps 726 mmHg 64%
    16:00 +22°C° 0 mm 6 mps 726 mmHg 66%
    17:00 +22°C° 0 mm 6 mps 726 mmHg 69%
    18:00 +21°C° 0 mm 6 mps 726 mmHg 72%
    19:00 +21°C° 0 mm 7 mps 727 mmHg 76%
    20:00 +21°C° 0.1 mm 7 mps 727 mmHg 76%
    21:00 +21°C° 0.1 mm 7 mps 727 mmHg 77%
    22:00 +21°C° 0.1 mm 7 mps 728 mmHg 77%
    23:00 +21°C° 0.1 mm 7 mps 727 mmHg 78%

    Day after tomorrow, 22 September, Friday

    Time Temperature Precipitation Wind Pressure Humidity
    00:00 +21°C° 0.1 mm 7 mps 727 mmHg 79%
    01:00 +21°C° 0.1 mm 7 mps 727 mmHg 80%
    02:00 +21°C° 0.1 mm 7 mps 727 mmHg 80%
    03:00 +21°C° 0.1 mm 7 mps 726 mmHg 80%
    04:00 +21°C° 0.1 mm 7 mps 726 mmHg 80%
    05:00 +21°C° 0.3 mm 7 mps 726 mmHg 80%
    06:00 +21°C° 0.3 mm 7 mps 726 mmHg 80%
    07:00 +21°C° 0.3 mm 7 mps 726 mmHg 80%
    08:00 +21°C° 0.4 mm 7 mps 727 mmHg 79%
    09:00 +21°C° 0.4 mm 7 mps 727 mmHg 77%
    10:00 +22°C° 0.4 mm 7 mps 727 mmHg 76%
    11:00 +22°C° 0.5 mm 8 mps 727 mmHg 75%
    12:00 +22°C° 0.5 mm 8 mps 726 mmHg 74%
    13:00 +23°C° 0.5 mm 8 mps 726 mmHg 73%
    14:00 +22°C° 0.6 mm 8 mps 726 mmHg 74%
    15:00 +22°C° 0.6 mm 8 mps 726 mmHg 75%
    16:00 +22°C° 0.6 mm 8 mps 725 mmHg 76%
    17:00 +21°C° 0.6 mm 8 mps 726 mmHg 77%
    18:00 +21°C° 0.6 mm 9 mps 726 mmHg 78%
    19:00 +21°C° 0.6 mm 9 mps 726 mmHg 80%
    20:00 +21°C° 0.4 mm 9 mps 727 mmHg 80%
    21:00 +21°C° 0.4 mm 9 mps 727 mmHg 80%
    22:00 +21°C° 0.4 mm 9 mps 727 mmHg 80%
    23:00 +21°C° 0.4 mm 9 mps 727 mmHg 80%

    23 September, Saturday

    Time Temperature Precipitation Wind Pressure Humidity
    00:00 +21°C° 0.4 mm 9 mps 727 mmHg 80%
    01:00 +21°C° 0.4 mm 9 mps 727 mmHg 80%
    02:00 +21°C° 0.3 mm 9 mps 726 mmHg 80%
    03:00 +21°C° 0.3 mm 8 mps 726 mmHg 80%
    04:00 +21°C° 0.3 mm 8 mps 726 mmHg 80%
    05:00 +21°C° 0.3 mm 8 mps 726 mmHg 80%
    06:00 +21°C° 0.3 mm 8 mps 726 mmHg 79%
    07:00 +21°C° 0.3 mm 7 mps 727 mmHg 79%
    08:00 +21°C° 0.5 mm 7 mps 727 mmHg 78%
    09:00 +22°C° 0.5 mm 6 mps 727 mmHg 76%
    10:00 +22°C° 0.5 mm 6 mps 728 mmHg 75%
    11:00 +22°C° 0.4 mm 6 mps 727 mmHg 73%
    12:00 +23°C° 0.4 mm 5 mps 727 mmHg 71%
    13:00 +23°C° 0.4 mm 5 mps 727 mmHg 70%
    14:00 +23°C° 0.5 mm 5 mps 726 mmHg 72%
    15:00 +22°C° 0.5 mm 5 mps 726 mmHg 74%
    16:00 +22°C° 0.5 mm 5 mps 726 mmHg 77%
    17:00 +22°C° 0.9 mm 5 mps 726 mmHg 79%
    18:00 +21°C° 0.9 mm 6 mps 726 mmHg 81%
    19:00 +21°C° 0.9 mm 6 mps 727 mmHg 84%
    20:00 +21°C° 1.2 mm 6 mps 727 mmHg 83%
    21:00 +21°C° 1.2 mm 6 mps 727 mmHg 83%
    22:00 +21°C° 1.2 mm 6 mps 727 mmHg 82%
    23:00 +21°C° 0.7 mm 6 mps 727 mmHg 81%

    24 September, Sunday

    Time Temperature Precipitation Wind Pressure Humidity
    00:00 +21°C° 0.7 mm 5 mps 727 mmHg 80%
    01:00 +21°C° 0.7 mm 5 mps 727 mmHg 79%
    02:00 +21°C° 0.3 mm 4 mps 726 mmHg 80%
    03:00 +21°C° 0.3 mm 4 mps 726 mmHg 80%
    04:00 +21°C° 0.3 mm 4 mps 726 mmHg 80%
    05:00 +21°C° 0 mm 4 mps 726 mmHg 81%
    06:00 +21°C° 0 mm 4 mps 726 mmHg 81%
    07:00 +21°C° 0 mm 3 mps 727 mmHg 81%
    08:00 +22°C° 0 mm 3 mps 727 mmHg 78%
    09:00 +22°C° 0 mm 3 mps 727 mmHg 75%
    10:00 +24°C° 0 mm 3 mps 727 mmHg 72%
    11:00 +24°C° 0.2 mm 3 mps 727 mmHg 72%
    12:00 +24°C° 0.2 mm 3 mps 726 mmHg 72%
    13:00 +24°C° 0.2 mm 3 mps 726 mmHg 71%
    14:00 +24°C° 0.5 mm 3 mps 726 mmHg 72%
    15:00 +24°C° 0.5 mm 3 mps 725 mmHg 72%
    16:00 +24°C° 0.5 mm 3 mps 725 mmHg 73%
    17:00 +22°C° 0.5 mm 3 mps 725 mmHg 74%
    18:00 +22°C° 0.5 mm 3 mps 726 mmHg 76%
    19:00 +22°C° 0.5 mm 3 mps 726 mmHg 77%
    20:00 +22°C° 0.4 mm 3 mps 726 mmHg 78%
    21:00 +22°C° 0.4 mm 3 mps 726 mmHg 79%
    22:00 +22°C° 0.4 mm 3 mps 726 mmHg 80%
    23:00 +21°C° 0.3 mm 3 mps 726 mmHg 81%

    25 September, Monday

    Time Temperature Precipitation Wind Pressure Humidity
    00:00 +21°C° 0.3 mm 3 mps 726 mmHg 81%
    01:00 +21°C° 0.3 mm 3 mps 725 mmHg 82%
    02:00 +21°C° 0.2 mm 3 mps 725 mmHg 82%
    03:00 +21°C° 0.2 mm 3 mps 725 mmHg 83%
    04:00 +21°C° 0.2 mm 2 mps 725 mmHg 83%
    05:00 +21°C° 0 mm 2 mps 725 mmHg 83%
    06:00 +21°C° 0 mm 2 mps 725 mmHg 83%
    07:00 +21°C° 0 mm 2 mps 726 mmHg 83%
    08:00 +23°C° 0 mm 2 mps 726 mmHg 80%
    09:00 +22°C° 0 mm 3 mps 726 mmHg 77%
    10:00 +24°C° 0 mm 3 mps 726 mmHg 74%
    11:00 +24°C° 0 mm 3 mps 726 mmHg 72%
    12:00 +24°C° 0 mm 3 mps 725 mmHg 70%
    13:00 +25°C° 0 mm 4 mps 725 mmHg 68%
    14:00 +25°C° 0 mm 4 mps 725 mmHg 69%
    15:00 +23°C° 0 mm 4 mps 725 mmHg 71%
    16:00 +23°C° 0 mm 5 mps 725 mmHg 72%
    17:00 +23°C° 0 mm 5 mps 725 mmHg 76%
    18:00 +22°C° 0 mm 5 mps 725 mmHg 79%
    19:00 +22°C° 0 mm 5 mps 725 mmHg 83%
    20:00 +22°C° 0 mm 6 mps 726 mmHg 84%
    21:00 +22°C° 0 mm 6 mps 726 mmHg 85%
    22:00 +22°C° 0 mm 6 mps 726 mmHg 85%
    23:00 +22°C° 0 mm 5 mps 726 mmHg 85%
    Show more